Location: Beddau
(51.5575°N, 3.3561°W)
Time: 10:40:26
(UTC+00:00)

Cosmos 990 Rocket - Pass Details

Date: 03 March 2021
Orbit: 746 x 769 km, 74.0° (Epoch: 16 April)

Event Time Altitude Azimuth Distance (km) Brightness Sun altitude
Rises 20:26:49 0° 337° (NNW) 3,210 7.9 -23.6°
Reaches altitude 10° 20:29:15 10° 342° (NNW) 2,285 6.9 -24.0°
Enters shadow 20:34:00 52° 45° (NE) 940 4.2 -24.7°
